Погода в Сулуке

Россия / Хабаровский край     50°39′09″N   133°35′01″E
темп.,
°C
ветер,
м/с
пор.,
м/с
влажн.,
%
обл.,
%
осадки,
мм/ч
давл.,
гПа
погр.,
м
10 мая, пн
пн1001:00−1в2586100 0.0 1010198
04:00−1в2387100 0.0 1011156
07:000в237979 0.0 1011225
10:00+5вюв2256100 0.0 1010814
13:00+6вюв1161100 0.1 10101024
16:00+6в226699 0.3 1010892
19:00+3в2378100 0.3 1012538
22:00+1вюв1383100 0.5 1015152
11 мая, вт
вт1101:000в1289100 0.1 101699
04:00−1вюв1288100 0.2 101776
07:000юв1184100 0.3 1017194
10:00+5ю1172100 0.4 1017513
13:00+8зсз1160100 0.1 10141248
16:00+7з236997 0.1 1015798
19:00+7зюз1271100 0.1 1015672
22:00+2вюв119273 0.1 101714
12 мая, ср
ср1201:00+1вюв1196100 0.0 101714
04:000вюв1196100 0.0 101621
07:00+2вюв2389100 0.0 1015114
10:00+7юв4758100 0.0 1010942
13:00+9ююв51150100 0.0 10081571
16:00+8ююв51261100 0.3 10041418
19:00+4юв31097100 4.6 1005992
22:00+3вюв2898100 5.6 1004809
13 мая, чт
чт1301:00+3в2698100 5.1 1003485
04:00+2в2499100 10.8 1002357
07:00+2юв1599100 4.2 1003461
10:00+3ююз3898100 6.4 1003884
13:00+3юз2899100 4.1 1005853
16:00+3з31098100 10.1 1007894
19:00+6сз28866 0.4 1007768
22:00+2св119584 0.4 100912
14 мая, пт
пт1401:00+2в119118 0.0 100914
04:00+2вюв1187100 0.0 100819
07:00+5вюв1183100 0.0 100848
10:00+11ю256495 0.0 1005500
13:00+16ю5936100 0.0 10022364
16:00+13ю61154100 0.2 9991753
19:00+10юв51574100 0.8 9971345
22:00+10ююв71774100 0.9 9931496